sat.trackr.live / text

‹ back to catalog

STARLINK-35801

NORAD 66265 · 2025-247A

PAYLOAD ACTIVE UNKNOWN

§ Identity

Operator
Country
US
Launch date
2025-10-31
Launch site
AFWTR
Launch vehicle
Mass (kg)
RCS (m²)

Purposes: comms

External: N2YO · Heavens-Above · Gunter

§ Orbital elements

Epoch: 2026-09-20T17:50:46.995936Z

Period
93.84 min
Inclination
53.1605°
Eccentricity
0.0001124
Mean motion
15.34446946 rev/d
Perigee alt
461.8 km
Apogee alt
463.3 km
Semi-major
6,840.7 km
B*
7.8663e-4
RAAN
0.7369°
Arg perigee
66.7933°
Mean anomaly
293.3188°
Rev number
5,096

§ Raw data

STARLINK-358011 66265U 25247A   26263.74359949  .00026334  00000+0  78663-3 0  99942 66265  53.1605   0.7369 0001124  66.7933 293.3188 15.34446946 50964

JSON: /api/v1/satellites/66265 · /tle

For live sub-satellite position, see the globe view (requires WebGL).

§ Visibility from observer

Set your observer location to see the next 7 days of passes ≥ 10°. The values pass through the URL so the page stays shareable.

No JS? Fill the form by hand. The geolocation button needs JavaScript.